Wind_Speed
10 10 10 10 10 9 8 8 7 7 7 7 7 8 9 10 11 12 13 14 14 14 15 15 16 16 16 16 15 15 15 14 14 13 13 12 12 11 10 10 9 8 7
11 11 12 12 12 12 11 10 10 9 9 9 9 9 9 10 10 11 12 13 13 14 14 14 15 15 15 15 15 15 16 15 15 15 14 14 13 12 11 10 9 8 6
12 13 13 13 14 14 14 13 13 12 11 11 10 10 10 10 10 11 11 12 12 13 13 14 14 14 14 14 14 15 15 15 15 15 14 14 14 12 11 10 8 7 5
14 14 14 15 16 16 16 17 16 15 14 13 13 12 12 11 11 11 11 12 12 12 12 13 13 13 13 13 14 14 14 14 14 13 13 13 12 11 10 9 7 5 4
16 17 17 16 16 17 18 19 19 19 18 17 16 15 15 14 13 12 12 12 12 12 12 12 12 12 11 12 12 12 12 11 11 11 11 10 10 9 8 7 6 5 4
19 20 19 19 18 18 19 20 21 22 23 22 20 19 18 17 16 15 14 13 12 12 11 11 11 11 10 10 10 10 10 9 9 8 8 8 8 8 7 6 6 5 4
23 22 22 22 21 21 22 22 22 24 25 25 25 24 22 20 19 18 16 15 14 13 12 12 11 10 10 10 9 9 8 8 7 6 6 6 7 7 6 5 5 5 6
27 27 26 25 25 25 24 24 24 25 26 27 27 27 25 24 23 21 19 18 16 15 14 13 11 11 10 9 8 8 7 7 6 6 6 6 7 7 6 5 5 6 6
30 30 30 29 28 28 28 27 27 26 27 27 29 28 28 27 27 25 23 21 20 18 16 15 13 11 10 9 8 8 7 7 6 6 6 6 7 7 6 6 6 7 7
31 32 32 32 32 32 32 31 30 30 29 29 29 30 30 29 29 29 27 25 23 21 20 18 15 13 11 10 9 8 7 7 7 6 7 7 7 7 7 7 6 7 7
31 32 33 33 33 33 34 34 34 34 32 31 30 30 31 30 29 29 30 28 27 25 23 21 19 16 14 12 11 9 8 8 8 7 8 7 8 8 7 7 7 8 8
31 32 32 33 33 33 33 34 34 35 35 35 34 33 31 29 29 28 28 30 31 29 26 24 22 20 17 15 13 12 10 9 9 9 8 8 8 8 8 7 7 8 9
30 31 31 32 32 32 32 32 32 33 34 36 36 36 35 32 31 31 30 28 29 30 28 26 24 23 21 18 16 14 13 11 10 10 10 10 9 9 9 8 8 9 9
28 29 29 29 29 30 30 30 30 31 32 33 34 36 36 35 33 32 32 32 30 29 30 30 28 25 24 22 20 18 16 14 13 12 11 11 11 10 10 9 9 9 10
25 24 25 25 26 26 27 26 27 28 29 29 30 33 35 35 35 34 34 33 33 31 30 29 29 28 27 25 23 21 19 18 16 14 14 13 13 12 11 11 10 10 10
22 22 23 23 23 23 23 23 24 24 25 27 27 29 30 31 32 33 34 34 33 33 32 31 30 29 29 29 27 25 23 21 19 17 16 15 15 14 13 12 12 12 11
22 22 22 22 22 22 21 21 21 21 22 23 25 26 27 29 29 30 31 33 33 33 34 32 31 31 29 28 27 26 25 24 23 21 19 18 17 16 15 14 14 13 13
22 22 22 22 22 21 20 19 19 18 19 20 21 22 24 26 27 29 29 30 31 32 33 34 33 31 31 29 27 27 27 26 25 24 23 21 20 19 18 16 16 15 14
22 22 22 22 21 20 20 18 17 16 16 16 17 19 21 23 24 26 28 29 30 31 33 34 33 33 33 31 29 28 28 28 28 27 26 25 24 22 20 19 18 17 16
21 21 21 21 21 20 18 17 15 14 13 13 14 15 16 18 21 23 25 26 28 30 31 34 35 34 33 32 32 30 29 29 29 29 28 28 27 25 24 22 21 20 19
21 21 21 21 20 19 18 16 15 14 13 12 12 13 14 15 17 20 22 24 26 28 30 32 34 35 35 34 33 31 30 30 30 30 29 29 29 28 27 26 24 23 22
21 21 21 20 20 19 18 16 15 14 13 12 12 12 12 13 14 17 19 21 23 26 28 30 32 33 34 35 34 33 32 31 31 31 30 29 30 30 29 28 28 27 25
21 21 21 21 20 19 19 17 16 14 13 12 11 12 12 12 13 15 17 19 21 23 25 28 30 32 33 35 35 35 34 34 32 33 31 31 31 31 31 31 30 30 29
21 21 21 21 21 20 20 19 17 15 14 12 11 11 11 11 12 14 15 17 19 21 23 25 28 30 32 34 35 36 36 35 35 34 34 34 33 32 32 32 33 34 33
21 21 22 22 22 21 21 21 19 17 16 15 13 12 11 11 12 13 13 15 17 18 21 23 26 29 31 33 34 36 36 37 37 37 36 36 36 35 35 35 34 35 34
21 21 22 22 22 22 22 22 21 20 19 18 16 14 13 12 12 12 12 14 15 16 18 20 23 26 29 31 34 35 36 37 37 38 38 39 39 39 38 37 37 34 35
Wind_Direction
303 295 290 289 289 286 283 279 272 264 259 252 244 239 237 235 234 234 233 231 231 231 233 234 237 238 242 243 245 246 247 250 257 261 265 271 277 282 286 293 299 311 324
305 301 292 284 282 279 277 276 271 268 263 259 253 248 243 241 238 235 232 232 231 232 234 235 238 241 243 245 247 249 250 252 257 260 264 269 273 274 276 281 288 299 310
307 303 297 287 280 274 273 271 269 265 263 260 258 255 251 247 243 239 236 235 235 236 237 238 240 243 243 245 248 251 252 254 258 261 263 265 268 267 267 271 277 283 289
306 301 298 293 283 273 268 266 263 261 258 256 255 255 254 251 247 244 241 239 239 239 240 241 242 243 243 245 248 251 253 256 259 261 260 260 260 261 259 263 263 262 265
303 298 296 294 289 278 269 267 261 257 255 254 252 250 251 250 247 246 244 243 241 241 241 240 241 243 243 243 246 248 252 254 259 258 255 252 249 249 250 249 247 244 244
297 295 293 289 286 281 275 271 267 259 254 251 249 247 247 247 245 244 244 243 241 240 240 240 240 241 242 242 243 244 249 253 254 251 246 242 236 234 235 235 234 228 214
292 291 289 286 283 282 279 274 269 265 259 252 247 245 244 245 246 245 243 241 239 238 238 239 239 240 241 241 240 242 243 244 242 239 233 228 223 219 214 215 216 206 194
292 289 287 284 281 278 277 274 273 268 263 256 250 246 244 242 242 243 242 241 238 237 236 236 237 239 239 240 239 239 235 233 231 227 219 207 206 200 196 196 191 185 181
292 290 287 284 282 279 277 275 272 270 267 260 253 250 247 243 240 238 240 240 238 237 236 235 235 235 237 237 237 236 231 226 220 213 205 199 194 191 187 183 181 177 173
292 290 288 285 282 278 275 273 271 270 268 262 257 253 249 248 245 239 236 237 237 237 236 235 233 231 232 233 232 232 229 220 210 203 197 194 189 185 181 179 180 177 171
294 292 290 287 284 281 278 273 269 267 266 263 259 255 252 250 248 246 238 234 234 234 234 234 234 230 229 230 229 229 225 218 210 202 200 194 189 187 184 181 177 176 173
298 295 293 291 288 285 281 277 273 268 264 262 262 261 258 254 251 249 244 239 235 233 233 233 234 232 230 229 228 227 225 220 215 209 206 199 194 191 188 184 179 177 175
302 299 297 295 292 289 286 281 276 271 267 264 263 264 263 260 256 254 249 247 243 236 232 233 233 232 231 230 228 228 226 221 218 215 212 206 202 199 194 189 187 182 180
309 306 303 300 297 294 290 285 279 274 270 266 264 262 262 262 260 257 255 252 249 242 237 235 235 233 232 230 229 229 228 226 221 218 217 213 209 206 201 196 192 189 186
318 315 311 308 305 301 296 290 283 277 272 269 266 263 261 262 261 260 258 256 251 246 243 240 236 235 232 231 229 228 228 227 224 219 220 218 213 210 205 201 198 194 191
325 324 321 317 314 308 301 294 288 281 275 270 266 264 261 259 258 259 258 258 256 251 249 246 241 239 235 232 231 229 228 226 224 222 222 221 216 213 210 208 203 201 199
331 331 329 326 323 318 312 303 294 285 279 273 268 264 260 258 256 257 257 257 256 254 251 249 247 242 237 233 231 228 227 227 225 224 224 224 220 218 216 214 210 207 206
335 334 333 332 330 327 322 314 304 294 284 277 272 268 263 260 257 256 256 255 255 254 252 249 249 245 240 238 236 233 231 230 228 226 225 225 224 222 221 220 218 214 213
339 339 338 337 335 332 329 325 316 306 295 286 278 272 267 262 259 257 257 256 253 252 251 249 249 246 244 243 242 239 236 234 231 231 230 227 226 226 224 224 223 221 220
344 343 342 342 341 338 335 331 325 317 307 297 288 280 275 268 262 260 257 256 256 253 250 248 248 247 246 244 243 242 240 237 235 234 233 229 227 227 227 227 226 225 224
350 350 348 347 348 346 344 341 336 327 319 310 298 290 283 275 268 264 260 258 258 256 252 250 248 248 247 245 243 242 243 241 239 236 234 232 229 228 229 229 229 228 228
358 357 356 355 355 355 353 349 345 338 328 318 307 298 289 282 275 269 265 263 260 258 255 251 249 247 246 247 246 244 242 242 241 239 237 234 231 229 230 230 231 231 231
6 6 5 5 4 2 2 360 355 350 344 334 322 311 301 292 285 278 273 268 264 260 257 253 250 247 245 246 246 245 244 243 242 241 240 238 236 234 233 233 232 232 232
12 12 12 12 12 12 11 9 7 4 358 350 339 328 315 305 296 287 280 274 269 264 259 256 252 249 246 245 245 245 246 245 243 241 241 241 240 238 236 236 236 234 233
17 18 19 19 19 18 18 18 17 15 11 6 358 348 335 322 311 299 291 283 276 269 262 258 254 251 248 246 245 245 245 244 244 242 241 241 241 240 240 239 237 236 236
22 23 24 23 22 21 21 21 21 20 17 14 10 2 353 341 328 314 303 294 285 276 268 262 257 252 249 247 246 245 244 244 244 243 241 241 241 240 241 240 238 239 238
Height
5897 5895 5895 5895 5894 5893 5892 5892 5891 5890 5889 5889 5888 5887 5887 5887 5887 5887 5887 5888 5889 5889 5890 5891 5891 5892 5893 5894 5895 5895 5896 5896 5896 5897 5897 5897 5897 5897 5897 5897 5897 5897 5897
5896 5894 5894 5894 5893 5892 5892 5891 5891 5890 5889 5888 5888 5887 5887 5887 5886 5886 5886 5887 5888 5888 5889 5889 5890 5890 5891 5892 5893 5893 5894 5894 5894 5894 5895 5895 5895 5895 5896 5896 5896 5896 5896
5895 5893 5893 5892 5891 5891 5890 5890 5889 5889 5888 5888 5887 5887 5886 5886 5886 5886 5886 5886 5887 5887 5887 5888 5888 5889 5889 5890 5890 5891 5891 5892 5892 5892 5893 5893 5893 5893 5894 5894 5895 5895 5895
5894 5892 5891 5890 5889 5889 5888 5888 5887 5887 5887 5886 5886 5885 5885 5885 5885 5885 5885 5885 5885 5886 5886 5886 5887 5887 5887 5888 5888 5889 5889 5890 5890 5890 5890 5890 5890 5891 5892 5893 5893 5894 5895
5892 5890 5889 5888 5887 5886 5885 5885 5884 5884 5884 5884 5884 5883 5883 5883 5883 5884 5884 5884 5884 5884 5885 5885 5885 5885 5886 5886 5887 5887 5887 5887 5888 5888 5888 5888 5888 5889 5890 5891 5892 5893 5894
5889 5887 5886 5885 5884 5883 5882 5882 5881 5881 5881 5881 5881 5881 5881 5881 5881 5881 5882 5882 5882 5883 5883 5883 5884 5884 5884 5885 5885 5885 5886 5886 5886 5886 5886 5887 5887 5888 5889 5890 5891 5892 5893
5885 5884 5882 5881 5880 5880 5879 5878 5877 5877 5877 5877 5877 5877 5878 5878 5879 5879 5879 5880 5880 5881 5881 5882 5882 5882 5883 5883 5883 5884 5884 5884 5884 5885 5885 5885 5886 5887 5888 5889 5890 5891 5892
5881 5879 5878 5876 5875 5875 5874 5873 5873 5872 5872 5872 5873 5873 5874 5874 5875 5876 5877 5877 5878 5879 5879 5880 5880 5881 5881 5882 5882 5882 5883 5883 5883 5884 5884 5884 5885 5886 5887 5888 5889 5890 5892
5875 5873 5871 5870 5869 5868 5868 5867 5867 5867 5867 5867 5867 5868 5869 5870 5870 5872 5873 5874 5875 5876 5877 5877 5878 5879 5879 5880 5880 5881 5881 5882 5883 5883 5884 5884 5885 5886 5886 5888 5889 5890 5891
5869 5866 5864 5863 5862 5861 5861 5861 5860 5860 5860 5861 5861 5862 5863 5864 5865 5866 5868 5869 5871 5872 5873 5875 5875 5876 5877 5878 5879 5879 5880 5881 5882 5882 5883 5883 5884 5885 5886 5887 5888 5890 5891
5862 5860 5858 5856 5854 5853 5852 5853 5853 5853 5853 5854 5855 5856 5857 5858 5859 5861 5862 5864 5866 5867 5869 5871 5872 5874 5875 5876 5877 5878 5879 5880 5881 5882 5882 5883 5884 5885 5886 5887 5888 5889 5891
5856 5854 5851 5849 5847 5846 5844 5844 5844 5845 5845 5846 5847 5849 5850 5851 5853 5855 5856 5858 5860 5862 5864 5866 5868 5870 5872 5873 5875 5876 5877 5878 5880 5881 5881 5882 5883 5884 5885 5887 5888 5889 5891
5850 5847 5844 5842 5840 5838 5837 5836 5836 5836 5837 5838 5839 5841 5842 5844 5846 5848 5850 5852 5854 5856 5859 5861 5864 5866 5868 5870 5872 5873 5875 5877 5878 5880 5880 5882 5883 5884 5885 5886 5888 5889 5890
5845 5842 5838 5836 5833 5831 5830 5829 5828 5828 5829 5830 5831 5833 5835 5837 5839 5841 5843 5846 5848 5850 5853 5856 5858 5861 5864 5866 5868 5870 5873 5875 5877 5878 5879 5880 5882 5883 5884 5885 5887 5888 5890
5840 5837 5834 5830 5827 5825 5823 5821 5821 5820 5821 5822 5823 5824 5827 5829 5831 5834 5836 5839 5841 5844 5847 5850 5853 5856 5859 5861 5864 5866 5869 5871 5874 5876 5877 5879 5880 5882 5883 5885 5886 5888 5889
5837 5833 5830 5826 5823 5820 5817 5815 5814 5813 5813 5814 5816 5817 5819 5821 5823 5826 5829 5832 5835 5838 5841 5844 5847 5850 5853 5856 5859 5861 5864 5867 5870 5873 5875 5877 5879 5880 5882 5883 5885 5887 5889
5834 5830 5826 5823 5819 5815 5812 5810 5808 5807 5807 5808 5809 5810 5812 5814 5816 5819 5821 5824 5827 5831 5834 5837 5841 5843 5846 5850 5853 5856 5859 5862 5866 5869 5872 5874 5876 5878 5880 5882 5884 5885 5887
5832 5828 5824 5820 5815 5812 5808 5805 5803 5802 5802 5802 5803 5804 5805 5807 5809 5811 5814 5817 5820 5823 5827 5830 5833 5837 5840 5844 5847 5850 5854 5858 5861 5864 5868 5870 5873 5875 5877 5880 5882 5884 5886
5830 5825 5821 5817 5813 5809 5806 5802 5800 5798 5797 5797 5797 5798 5799 5800 5802 5804 5807 5810 5812 5816 5819 5823 5827 5830 5834 5837 5841 5844 5848 5852 5855 5859 5863 5866 5869 5871 5874 5876 5879 5881 5883
5828 5824 5820 5815 5811 5807 5803 5800 5797 5796 5794 5794 5793 5794 5794 5795 5796 5798 5800 5802 5805 5808 5811 5815 5819 5823 5827 5830 5834 5838 5841 5845 5849 5853 5857 5860 5864 5867 5870 5873 5875 5878 5881
5827 5822 5818 5814 5810 5806 5802 5799 5796 5794 5792 5791 5790 5790 5790 5791 5791 5793 5794 5796 5798 5801 5804 5807 5811 5815 5819 5822 5827 5831 5834 5838 5842 5846 5850 5854 5858 5862 5865 5868 5871 5874 5877
5826 5822 5817 5813 5809 5805 5801 5798 5795 5792 5790 5789 5788 5788 5787 5787 5787 5788 5789 5790 5792 5794 5797 5800 5803 5807 5811 5815 5819 5823 5827 5832 5835 5839 5843 5847 5851 5855 5859 5863 5866 5869 5873
5826 5822 5817 5813 5809 5805 5801 5798 5794 5792 5789 5788 5786 5785 5785 5784 5784 5784 5785 5785 5786 5788 5790 5793 5796 5799 5803 5807 5811 5815 5820 5824 5827 5831 5836 5840 5844 5848 5853 5857 5860 5863 5867
5827 5822 5818 5814 5810 5806 5802 5798 5795 5792 5789 5787 5785 5784 5782 5781 5781 5780 5780 5781 5781 5782 5784 5786 5789 5792 5795 5799 5803 5807 5811 5816 5820 5824 5828 5832 5836 5841 5845 5849 5853 5857 5861
5828 5824 5819 5815 5811 5807 5803 5799 5796 5793 5790 5787 5785 5783 5781 5779 5778 5777 5777 5776 5776 5777 5778 5780 5782 5784 5788 5791 5794 5798 5803 5807 5811 5816 5820 5824 5828 5833 5837 5842 5845 5849 5853
5829 5825 5821 5817 5813 5809 5805 5801 5798 5794 5791 5788 5785 5782 5780 5778 5776 5774 5773 5773 5772 5772 5773 5774 5775 5777 5780 5783 5786 5790 5794 5798 5802 5806 5811 5815 5819 5824 5828 5833 5838 5841 5845